Location: Miss�
(46.9484°N, 0.1922°W)
Time: 02:47:56
(UTC+00:00)

BREEZE-M DEB (TANK) - Pass Details

Date: 02 March 2021
Orbit: 298 x 16725 km, 49.5° (Epoch: 17 April)

Event Time Altitude Azimuth Distance (km) Brightness Sun altitude
Rises 19:06:11 0° 232° (SW) 2,605 7.0 -14.1°
Reaches altitude 10° 19:07:31 10° 229° (SW) 2,013 6.3 -14.4°
Maximum altitude 19:11:35 68° 145° (SE) 1,235 4.4 -15.0°
Drops below altitude 10° 19:28:08 10° 68° (ENE) 7,557 8.0 -17.8°
Sets 19:39:54 0° 68° (ENE) 11,384 9.0 -19.8°
